CUSAT 1 (39266 NORAD) Tracking and Keplerian Element Data

This shows tracking and keplerian element data for the satellite.

Feedback or suggestion? Click here.




ElementValue
Catalog39266
NameCUSAT 1
Epoch Orbit26954
Epoch Day345.19853721
Epoch Year2018
RAAN161.4893
Inclination80.9829
Eccentricity0.0644289
Argument of Perigee79.3271
Mean Anonmoly287.9753
Mean Motion14.33717286
Decay Rate3.02E-05
L11 39266U 13055B 18345.19853721 .00003020 00000-0 80800-4 0 9992
L22 39266 80.9829 161.4893 0644289 79.3271 287.9753 14.33717286269547

Live tracking and technical data element details for CUSAT 1 (NORAD 39266). CUSAT 1 can be tracked NOW for your location showing map with azimuth and elevation plus other details from your city location.

Track the satellite on the map from your city or location and see movement details for azimuth, elevation, latitude, longitude, range, height, and movement on the map or in text.







IsCatalogInMostPopularTable: catalog: 39266, numindb: 82
Update: records affected: 1



GetName: 39266 CUSAT 1

Hit Count: updated at: Thu, 13 Dec 2018 05:04:15 GMT